DW0630 Weather Reports


time (UTC)temp
F
wind
direction
speed
knots
gust
knots
rain 1hr
in
rain 24hr
in
rain mn
in
humidity
%
barometer
mb
20260506010013 49 339 2.6 3.5 0.00 0.00 0.00 82 1013.3
20260506004512 49 336 1.7 3.5 0.00 0.00 0.00 82 1013.4
20260506003025 50 336 2.6 4.3 0.00 0.00 0.00 81 1013.4
20260506001512 50 338 2.6 4.3 0.00 0.00 0.00 81 1013.5
20260505234513 50 333 3.5 4.3 0.00 0.00 0.00 80 1013.4
20260505230014 50 342 2.6 3.5 0.00 0.00 0.00 78 1013.6
20260505224512 51 342 2.6 4.3 0.00 0.01 0.00 78 1013.7
20260505223013 50 350 2.6 5.2 0.00 0.01 0.00 77 1013.6
20260505221513 51 342 3.5 5.2 0.00 0.01 0.00 77 1013.6
20260505220024 51 326 2.6 4.3 0.00 0.01 0.00 76 1013.6
20260505214512 50 342 3.5 4.3 0.00 0.21 0.00 76 1013.8
20260505213013 50 355 1.7 4.3 0.00 0.21 0.00 76 1013.7
20260505211513 50 355 1.7 3.5 0.00 0.21 0.00 75 1013.8
20260505210024 51 5 3.5 4.3 0.00 0.21 0.00 74 1013.6
20260505204520 51 13 4.3 7.0 0.00 0.24 0.00 73 1013.6
20260505203022 52 14 3.5 7.0 0.00 0.24 0.00 73 1013.6
20260505201518 53 23 4.3 7.0 0.00 0.24 0.00 72 1013.4
20260505200016 54 24 6.1 8.7 0.00 0.24 0.00 71 1013.3
20260505194513 54 17 4.3 7.0 0.00 0.25 0.00 70 1013.3
20260505193025 55 33 6.1 9.6 0.00 0.25 0.00 68 1013.1
20260505191513 56 11 6.1 9.6 0.00 0.25 0.00 68 1013.0
20260505190014 56 19 8.7 12.2 0.00 0.25 0.00 65 1012.8
20260505183024 58 5 9.6 13.9 0.00 0.25 0.00 61 1012.6
20260505181516 57 349 6.1 10.4 0.00 0.25 0.00 62 1012.5
20260505180024 58 14 9.6 13.0 0.00 0.25 0.00 59 1012.5
20260505174516 60 5 9.6 13.0 0.00 0.25 0.00 57 1012.6
20260505173016 60 25 8.7 12.2 0.00 0.25 0.00 56 1012.6
20260505171522 61 355 8.7 12.2 0.00 0.25 0.00 51 1012.6
20260505164512 61 23 9.6 13.9 0.00 0.34 0.00 53 1012.7
20260505163025 62 5 9.6 14.8 0.00 0.34 0.00 51 1012.7
20260505161512 62 15 7.8 13.0 0.00 0.34 0.00 53 1012.7
20260505153013 61 34 9.6 13.9 0.00 0.34 0.00 57 1012.7
20260505151512 62 14 9.6 14.8 0.00 0.34 0.00 56 1012.8
20260505124512 60 44 7.8 13.9 0.00 0.34 0.00 67 1013.5
20260505123014 60 9 10.4 14.8 0.00 0.34 0.00 64 1013.6
20260505121513 60 55 7.8 13.9 0.00 0.34 0.00 65 1013.6
20260505120022 59 338 8.7 13.0 0.00 0.34 0.00 65 1013.6
20260505114512 58 45 10.4 15.6 0.00 0.34 0.00 66 1013.6
20260505111512 56 49 8.7 13.0 0.00 0.34 0.00 72 1013.8
20260505101512 55 34 8.7 12.2 0.00 0.34 0.00 76 1014.1
20260505100014 54 44 7.0 10.4 0.00 0.34 0.00 79 1014.2
20260505094514 53 36 7.8 11.3 0.00 0.34 0.00 81 1014.2
20260505093020 53 48 7.8 11.3 0.00 0.34 0.00 81 1014.2
20260505091513 53 45 10.4 15.6 0.00 0.34 0.00 79 1014.1
20260505090013 54 37 10.4 14.8 0.00 0.34 0.00 80 1014.1
20260505084512 53 16 8.7 12.2 0.00 0.34 0.00 84 1014.3
20260505083013 52 38 8.7 11.3 0.00 0.34 0.00 87 1014.4
20260505081512 52 30 8.7 13.0 0.00 0.34 0.00 90 1014.4
20260505074513 51 26 6.1 8.7 0.00 0.34 0.00 94 1014.5
20260505073029 51 5 6.1 9.6 0.00 0.34 0.00 95 1014.4
20260505071710 50 5 5.2 7.8 0.00 0.34 0.00 95 1014.4
20260505070047 49 30 5.2 7.8 0.00 0.34 0.00 95 1014.4
20260505064516 49 32 5.2 8.7 0.00 0.34 0.00 95 1014.5
20260505063025 49 27 3.5 5.2 0.00 0.34 0.00 95 1014.4
20260505061518 49 5 1.7 3.5 0.00 0.34 0.00 95 1014.3
20260505060023 48 19 1.7 3.5 0.00 0.34 0.00 95 1014.2
20260505054519 48 30 0.0 0.9 0.00 0.34 0.00 95 1014.2
20260505053013 48 30 0.9 2.6 0.00 0.34 0.00 95 1014.2
20260505051512 48 26 1.7 3.5 0.00 0.34 0.00 95 1014.2
20260505041513 49 57 2.6 4.3 0.00 0.34 0.00 95 1014.1
20260505040021 49 0.0 0.0 0.00 0.34 0.00 95 1014.0
20260505034513 49 0.0 0.0 0.00 0.34 0.00 95 1014.1
20260505033013 49 0.0 0.0 0.00 0.34 0.00 95 1014.0
20260505031514 49 0.0 0.0 0.00 0.34 0.00 94 1014.1
20260505030014 49 5 0.9 4.3 0.00 0.34 0.00 94 1014.0
20260505024513 50 5 1.7 4.3 0.00 0.34 0.00 94 1014.0
20260505023013 51 11 3.5 5.2 0.00 0.34 0.00 94 1014.0
20260505021512 51 346 3.5 5.2 0.00 0.34 0.00 95 1014.2
20260505020022 51 333 0.0 0.0 0.00 0.34 0.00 94 1014.3
20260505014515 51 62 0.0 0.0 0.00 0.34 0.00 95 1014.3
20260505013021 51 62 0.9 1.7 0.00 0.34 0.00 94 1014.4
20260505011514 51 62 1.7 2.6 0.00 0.34 0.00 94 1014.6